Location: Unspecified
(47.4992°N, 121.7766°W)
Time: 03:48:32
(UTC-08:00)

Cosmos 2058 - Pass Details

Date: 02 February 2021
Orbit: 561 x 584 km, 82.5° (Epoch: 24 February)

Event Time Altitude Azimuth Distance (km) Brightness Sun altitude
Rises 19:54:09 0° 216° (SW) 2,783 6.8 -27.7°
Reaches altitude 10° 19:56:35 10° 228° (SW) 1,885 6.0 -28.1°
Maximum altitude 20:00:10 28° 288° (WNW) 1,097 4.9 -28.7°
Enters shadow 20:03:47 10° 348° (NNW) 1,884 5.7 -29.3°
